GFSMA_prec_precacc_156.txt.gz
Total_Precipitation_Accumulation
0.70 1.08 0.84 0.83 0.62 1.22 0.79 0.54 0.57 0.53 0.60 0.67 0.58 0.43 0.17 0.25 0.16 0.18 0.32 0.52 0.59 0.66 0.99 0.90 0.82 0.80 0.52 0.33 0.31 0.32 0.37 0.45 0.50 0.55 0.67 0.65 0.47 0.43 0.33 0.33 0.24 0.20 0.24
0.72 1.15 1.02 0.87 0.61 0.87 0.79 0.68 0.45 0.52 0.50 0.70 0.56 0.48 0.34 0.30 0.10 0.11 0.20 0.40 0.47 0.54 0.78 1.12 1.17 0.98 0.50 0.19 0.11 0.13 0.19 0.23 0.34 0.48 0.52 0.54 0.47 0.33 0.30 0.25 0.24 0.22 0.23
0.48 0.74 0.94 0.73 0.64 0.72 0.67 0.83 0.77 0.60 0.59 0.86 0.60 0.51 0.38 0.40 0.21 0.08 0.11 0.19 0.27 0.37 0.53 0.74 0.90 0.86 0.59 0.25 0.12 0.05 0.07 0.07 0.12 0.24 0.31 0.37 0.48 0.38 0.35 0.32 0.30 0.32 0.30
0.38 0.47 0.71 0.92 0.80 0.82 0.59 0.56 0.77 0.61 0.56 0.77 0.78 0.54 0.52 0.44 0.41 0.13 0.09 0.12 0.17 0.27 0.35 0.42 0.60 0.69 0.65 0.42 0.20 0.06 0.04 0.10 0.09 0.16 0.20 0.30 0.52 0.45 0.43 0.35 0.38 0.44 0.42
0.61 0.52 0.53 0.68 1.04 0.77 0.60 0.64 0.65 0.67 0.48 0.61 0.80 0.69 0.60 0.47 0.54 0.44 0.16 0.13 0.12 0.19 0.25 0.31 0.29 0.24 0.28 0.29 0.29 0.19 0.08 0.06 0.08 0.11 0.17 0.16 0.25 0.62 0.80 0.67 0.44 0.46 0.54
0.97 0.93 0.82 0.61 0.70 0.83 0.69 0.83 0.89 0.81 0.67 0.53 0.69 0.78 0.57 0.66 0.59 0.63 0.39 0.24 0.22 0.18 0.27 0.37 0.30 0.22 0.16 0.19 0.22 0.26 0.15 0.13 0.12 0.11 0.15 0.11 0.14 0.20 0.32 0.57 0.79 0.82 0.74
1.19 1.54 1.49 1.32 0.85 0.53 0.65 0.75 1.13 1.16 1.07 0.93 1.25 1.23 0.90 0.62 0.66 0.60 0.52 0.43 0.49 0.35 0.40 0.37 0.46 0.36 0.29 0.18 0.16 0.19 0.18 0.19 0.17 0.17 0.16 0.10 0.07 0.07 0.20 0.37 0.66 0.95 1.20
1.26 1.36 1.48 1.72 1.87 1.23 0.76 0.73 1.07 1.51 1.63 1.54 1.63 1.41 1.09 0.86 0.61 0.66 0.54 0.42 0.37 0.40 0.45 0.54 0.34 0.34 0.36 0.33 0.19 0.14 0.19 0.29 0.26 0.24 0.34 0.24 0.16 0.04 0.04 0.06 0.23 0.66 0.95
0.84 1.22 1.43 1.38 1.39 1.29 1.15 1.12 1.32 1.75 1.64 1.61 1.42 1.68 1.41 1.08 0.81 0.67 0.58 0.44 0.57 0.69 0.61 0.48 0.43 0.29 0.29 0.29 0.27 0.17 0.11 0.16 0.27 0.33 0.36 0.19 0.12 0.05 0.05 0.06 0.11 0.24 0.50
0.58 0.88 1.20 1.09 1.33 1.56 1.08 0.90 0.68 1.09 1.58 1.73 2.00 1.56 0.91 0.75 0.71 0.74 0.65 0.56 0.48 0.64 0.93 1.36 0.81 0.40 0.35 0.31 0.27 0.14 0.08 0.05 0.08 0.15 0.28 0.30 0.17 0.11 0.08 0.10 0.12 0.16 0.25
0.62 0.69 0.94 1.07 1.10 1.11 1.12 0.99 0.65 0.57 0.84 1.09 1.10 1.30 1.61 1.34 0.95 0.64 0.59 0.50 0.41 0.30 0.35 0.40 0.68 0.60 0.51 0.39 0.37 0.31 0.16 0.09 0.04 0.05 0.10 0.17 0.21 0.18 0.14 0.11 0.12 0.15 0.25
0.84 0.88 0.93 1.05 1.57 1.77 1.55 1.33 1.53 1.32 1.00 1.04 1.25 1.23 0.93 0.85 0.94 1.03 0.84 0.60 0.57 0.40 0.32 0.39 0.46 0.53 0.62 0.48 0.34 0.39 0.30 0.22 0.14 0.13 0.12 0.11 0.10 0.12 0.19 0.20 0.20 0.20 0.27
1.95 2.04 2.00 1.72 1.61 1.86 2.54 2.02 1.95 1.96 2.02 1.64 1.47 1.26 1.22 0.98 0.78 0.80 0.88 0.87 0.94 0.77 0.69 0.57 0.47 0.43 0.52 0.77 0.63 0.50 0.41 0.41 0.40 0.38 0.26 0.17 0.17 0.15 0.12 0.19 0.23 0.27 0.29
2.66 3.02 3.48 3.70 2.99 2.39 2.63 2.74 2.30 2.24 2.70 2.70 2.24 1.81 1.44 1.45 1.49 1.36 1.24 1.50 1.39 1.03 0.81 0.55 0.44 0.53 0.55 0.59 0.69 0.89 0.77 0.62 0.59 0.56 0.48 0.33 0.21 0.17 0.21 0.20 0.27 0.33 0.32
1.65 2.10 2.32 2.52 3.15 3.23 2.79 2.75 2.59 2.18 2.24 2.54 2.53 2.56 2.44 1.72 1.48 1.54 1.61 1.66 1.87 1.37 0.64 0.40 0.69 0.75 0.80 0.78 0.74 0.76 0.65 0.54 0.57 0.52 0.46 0.33 0.25 0.22 0.22 0.23 0.26 0.27 0.29
2.05 1.60 1.76 1.83 1.66 1.61 1.77 2.15 2.37 2.19 2.15 2.16 2.17 2.25 2.43 2.50 2.19 2.01 1.99 1.92 1.87 1.51 1.11 0.74 0.81 0.65 0.80 0.72 0.79 0.83 0.61 0.61 0.51 0.47 0.43 0.32 0.22 0.25 0.31 0.33 0.31 0.31 0.30
2.02 1.90 1.60 1.60 1.61 1.42 1.49 1.59 1.58 1.68 1.94 2.07 1.94 2.06 2.36 2.76 2.64 2.59 2.50 2.31 1.99 1.98 2.25 1.64 1.12 1.02 0.94 0.76 0.71 0.69 0.65 0.54 0.40 0.43 0.46 0.48 0.38 0.31 0.31 0.34 0.35 0.34 0.31
1.67 1.32 1.18 1.12 1.19 1.31 1.46 1.47 1.46 1.52 1.40 1.40 1.58 1.56 1.64 1.82 2.02 2.17 2.38 2.65 2.66 2.60 2.57 2.34 2.12 1.86 1.59 1.30 1.11 0.91 0.63 0.52 0.40 0.47 0.50 0.49 0.48 0.43 0.39 0.34 0.30 0.31 0.32
1.44 1.41 1.16 1.07 1.06 1.19 1.31 1.64 1.52 1.34 1.44 1.68 1.71 1.72 1.67 1.62 1.62 1.73 1.84 1.83 1.72 1.82 2.10 2.31 2.30 2.21 2.00 1.57 1.22 0.97 1.00 0.85 0.55 0.52 0.50 0.56 0.49 0.42 0.42 0.41 0.39 0.36 0.37
1.45 1.78 1.89 1.94 1.72 1.39 1.40 1.36 1.31 1.33 1.23 1.56 1.66 1.36 1.55 1.59 1.36 1.26 1.42 1.50 1.46 1.68 1.87 2.11 2.19 1.96 1.82 1.77 1.86 1.64 1.29 1.05 1.17 0.99 0.71 0.48 0.47 0.47 0.47 0.49 0.49 0.52 0.56
0.77 1.33 1.40 1.56 1.43 1.17 1.16 0.84 0.64 1.01 1.13 1.05 1.32 1.13 1.00 1.09 1.12 0.81 0.74 0.83 1.08 1.37 1.62 1.78 2.01 1.99 1.71 1.55 1.65 1.62 1.63 1.39 1.44 1.14 1.02 0.96 0.78 0.62 0.57 0.66 0.68 0.71 0.71
0.41 0.61 0.73 0.86 1.01 0.80 0.87 0.52 0.45 0.55 0.62 0.56 0.58 0.55 0.60 0.76 0.62 0.75 0.81 0.77 0.70 0.78 0.94 1.09 1.21 1.29 1.15 1.14 1.25 1.49 1.55 1.84 1.73 1.01 1.13 1.20 1.07 1.03 0.87 0.84 1.18 0.99 0.78
0.66 0.57 0.60 0.63 0.82 0.97 1.09 0.95 0.79 0.59 0.63 0.73 0.75 0.71 0.59 0.58 0.66 0.41 0.61 0.74 0.84 0.99 1.00 0.96 1.08 1.07 1.07 1.04 1.20 1.40 1.47 1.50 1.36 1.05 1.34 1.59 1.34 1.28 1.13 1.21 1.56 1.21 1.12
0.81 0.73 0.70 0.62 0.48 0.53 0.69 0.71 0.92 0.95 1.07 0.99 0.95 0.88 0.94 0.95 0.99 0.92 0.74 0.78 0.80 0.90 1.03 1.11 1.25 1.25 1.23 1.18 1.25 1.33 1.42 1.62 1.63 1.36 1.33 1.63 1.30 1.42 1.40 1.38 1.79 1.20 0.97
0.97 0.96 0.95 0.99 0.83 0.68 0.85 0.65 0.62 0.45 0.57 0.64 0.61 0.66 0.73 0.67 1.20 1.18 0.92 0.95 1.16 1.45 1.84 1.89 2.00 2.06 1.91 1.61 1.39 1.44 1.73 2.08 2.11 1.78 1.57 1.49 1.31 1.26 1.18 1.12 1.17 1.34 0.92
1.35 1.29 1.26 1.19 1.32 0.97 1.35 1.18 1.08 0.91 0.96 0.91 0.77 0.75 1.24 0.94 1.27 0.98 0.85 0.80 1.01 1.07 1.16 1.26 1.36 1.41 1.34 1.33 1.55 1.41 1.49 1.78 1.87 1.82 1.41 1.42 1.18 1.30 1.46 1.17 0.96 0.87 0.76

GFSMA_prec_precacc_159.txt.gz
Total_Precipitation_Accumulation
0.70 1.08 0.84 0.83 0.62 1.22 0.79 0.54 0.57 0.53 0.61 0.68 0.60 0.50 0.28 0.37 0.22 0.26 0.37 0.53 0.59 0.67 1.01 0.95 0.85 0.81 0.52 0.33 0.31 0.32 0.37 0.45 0.50 0.55 0.67 0.65 0.47 0.43 0.33 0.33 0.24 0.21 0.27
0.72 1.15 1.02 0.87 0.61 0.87 0.79 0.68 0.45 0.52 0.50 0.70 0.56 0.49 0.36 0.37 0.18 0.18 0.29 0.43 0.47 0.54 0.81 1.16 1.21 0.99 0.50 0.19 0.11 0.13 0.19 0.23 0.34 0.48 0.52 0.54 0.47 0.33 0.30 0.25 0.24 0.22 0.23
0.48 0.74 0.94 0.73 0.64 0.72 0.67 0.83 0.77 0.60 0.59 0.86 0.60 0.51 0.40 0.45 0.25 0.12 0.20 0.29 0.31 0.37 0.53 0.75 0.91 0.87 0.59 0.25 0.12 0.05 0.07 0.07 0.12 0.24 0.31 0.37 0.48 0.38 0.35 0.32 0.30 0.32 0.30
0.38 0.47 0.71 0.92 0.80 0.82 0.59 0.56 0.77 0.61 0.56 0.77 0.78 0.54 0.52 0.45 0.42 0.13 0.13 0.30 0.31 0.32 0.37 0.43 0.60 0.69 0.65 0.42 0.20 0.06 0.04 0.10 0.09 0.16 0.20 0.30 0.52 0.45 0.43 0.35 0.38 0.44 0.42
0.61 0.52 0.53 0.68 1.04 0.77 0.60 0.64 0.65 0.67 0.48 0.61 0.80 0.69 0.60 0.47 0.54 0.46 0.20 0.20 0.35 0.33 0.30 0.32 0.30 0.27 0.29 0.29 0.29 0.19 0.08 0.06 0.08 0.11 0.17 0.16 0.25 0.62 0.80 0.67 0.44 0.46 0.54
0.97 0.93 0.82 0.61 0.70 0.83 0.69 0.83 0.89 0.81 0.67 0.53 0.69 0.78 0.57 0.66 0.59 0.63 0.40 0.26 0.32 0.37 0.34 0.40 0.31 0.23 0.19 0.20 0.23 0.26 0.15 0.13 0.12 0.11 0.15 0.11 0.14 0.20 0.32 0.57 0.79 0.82 0.74
1.19 1.54 1.49 1.32 0.85 0.53 0.65 0.75 1.13 1.16 1.08 0.93 1.25 1.23 0.90 0.62 0.66 0.60 0.52 0.44 0.51 0.44 0.56 0.48 0.55 0.40 0.31 0.23 0.19 0.20 0.18 0.19 0.17 0.17 0.16 0.10 0.07 0.07 0.20 0.37 0.66 0.95 1.20
1.26 1.36 1.48 1.72 1.87 1.23 0.76 0.73 1.08 1.51 1.63 1.54 1.63 1.42 1.09 0.86 0.61 0.66 0.54 0.42 0.38 0.41 0.56 0.71 0.51 0.48 0.46 0.38 0.21 0.19 0.25 0.30 0.26 0.24 0.34 0.24 0.16 0.04 0.04 0.06 0.23 0.66 0.95
0.84 1.22 1.44 1.38 1.39 1.29 1.16 1.12 1.32 1.75 1.65 1.61 1.42 1.70 1.43 1.09 0.81 0.67 0.58 0.44 0.57 0.70 0.65 0.75 0.84 0.60 0.45 0.38 0.31 0.21 0.14 0.20 0.30 0.33 0.36 0.19 0.12 0.05 0.05 0.06 0.11 0.24 0.50
0.58 0.88 1.20 1.09 1.33 1.57 1.08 0.90 0.68 1.09 1.58 1.74 2.01 1.56 0.91 0.76 0.71 0.75 0.66 0.57 0.50 0.65 0.95 1.51 1.70 1.85 1.79 1.32 0.62 0.23 0.09 0.08 0.10 0.17 0.28 0.30 0.17 0.11 0.08 0.10 0.12 0.16 0.25
0.62 0.69 0.94 1.07 1.10 1.11 1.13 1.00 0.65 0.57 0.85 1.10 1.12 1.31 1.61 1.34 0.95 0.65 0.60 0.50 0.42 0.33 0.41 0.45 0.85 1.29 1.30 1.16 1.01 0.59 0.24 0.12 0.09 0.10 0.15 0.19 0.21 0.18 0.14 0.11 0.12 0.15 0.25
0.84 0.88 0.94 1.05 1.57 1.77 1.55 1.33 1.54 1.32 1.01 1.05 1.26 1.25 0.94 0.86 0.94 1.03 0.85 0.60 0.57 0.41 0.35 0.43 0.50 0.60 0.69 0.65 0.69 0.73 0.43 0.31 0.19 0.16 0.15 0.14 0.12 0.12 0.19 0.20 0.20 0.20 0.27
1.95 2.04 2.01 1.72 1.61 1.87 2.55 2.03 1.96 1.97 2.03 1.65 1.48 1.28 1.24 0.99 0.79 0.81 0.88 0.87 0.94 0.77 0.70 0.62 0.54 0.50 0.59 0.88 0.80 0.72 0.65 0.67 0.61 0.46 0.29 0.19 0.20 0.16 0.13 0.19 0.23 0.27 0.30
2.66 3.02 3.48 3.70 2.99 2.39 2.63 2.75 2.31 2.25 2.71 2.70 2.25 1.83 1.46 1.47 1.50 1.37 1.25 1.52 1.40 1.03 0.81 0.61 0.51 0.58 0.63 0.69 0.78 1.10 1.07 0.90 0.87 0.78 0.63 0.43 0.27 0.22 0.22 0.20 0.27 0.33 0.32
1.65 2.10 2.32 2.52 3.15 3.23 2.80 2.75 2.59 2.18 2.24 2.55 2.54 2.56 2.45 1.74 1.49 1.55 1.62 1.68 1.90 1.39 0.65 0.46 0.73 0.77 0.83 0.83 0.83 0.90 0.86 0.82 0.85 0.80 0.68 0.52 0.42 0.35 0.30 0.29 0.30 0.28 0.30
2.05 1.60 1.76 1.83 1.66 1.61 1.77 2.16 2.37 2.19 2.15 2.16 2.18 2.27 2.44 2.52 2.22 2.04 2.01 1.94 1.88 1.52 1.14 0.76 0.83 0.66 0.82 0.73 0.81 0.87 0.69 0.74 0.66 0.66 0.67 0.56 0.43 0.40 0.42 0.40 0.36 0.34 0.30
2.02 1.90 1.60 1.60 1.61 1.42 1.49 1.59 1.58 1.68 1.95 2.08 1.94 2.07 2.38 2.78 2.67 2.64 2.54 2.34 2.00 1.98 2.31 1.80 1.20 1.07 0.96 0.76 0.72 0.71 0.69 0.60 0.50 0.55 0.60 0.68 0.61 0.49 0.45 0.44 0.42 0.38 0.34
1.67 1.32 1.18 1.12 1.19 1.31 1.46 1.47 1.46 1.52 1.40 1.40 1.59 1.57 1.66 1.85 2.05 2.19 2.41 2.69 2.67 2.61 2.62 2.50 2.46 2.24 1.80 1.39 1.14 0.94 0.69 0.62 0.52 0.60 0.65 0.67 0.67 0.62 0.52 0.44 0.38 0.37 0.38
1.44 1.41 1.16 1.07 1.06 1.19 1.31 1.64 1.52 1.34 1.44 1.70 1.75 1.77 1.74 1.69 1.71 1.82 1.91 1.89 1.76 1.85 2.21 2.46 2.46 2.34 2.11 1.69 1.35 1.10 1.09 0.93 0.66 0.65 0.64 0.72 0.76 0.63 0.57 0.54 0.48 0.43 0.43
1.45 1.78 1.89 1.94 1.72 1.39 1.40 1.36 1.31 1.33 1.23 1.56 1.68 1.40 1.60 1.69 1.49 1.39 1.55 1.62 1.53 1.70 1.89 2.18 2.30 2.14 1.99 1.85 1.94 1.79 1.57 1.30 1.32 1.12 0.94 0.77 0.71 0.69 0.64 0.61 0.60 0.61 0.63
0.77 1.33 1.40 1.56 1.43 1.17 1.16 0.84 0.64 1.01 1.13 1.05 1.32 1.14 1.01 1.12 1.18 0.87 0.81 0.97 1.22 1.47 1.73 1.88 2.10 2.07 1.88 1.77 1.83 1.83 1.90 1.80 1.87 1.45 1.22 1.19 1.12 0.94 0.90 0.97 0.89 0.84 0.79
0.41 0.61 0.73 0.86 1.01 0.80 0.87 0.52 0.45 0.55 0.62 0.56 0.58 0.55 0.60 0.76 0.63 0.76 0.82 0.79 0.77 0.86 1.02 1.21 1.33 1.41 1.31 1.35 1.52 1.77 1.84 2.16 2.09 1.36 1.51 1.50 1.32 1.38 1.34 1.29 1.61 1.27 0.91
0.66 0.57 0.60 0.63 0.82 0.97 1.09 0.95 0.79 0.59 0.63 0.73 0.75 0.71 0.60 0.59 0.66 0.41 0.61 0.75 0.85 1.00 1.01 0.96 1.10 1.10 1.09 1.07 1.23 1.45 1.57 1.65 1.56 1.25 1.59 1.81 1.56 1.54 1.45 1.57 1.94 1.60 1.43
0.81 0.73 0.70 0.62 0.48 0.53 0.69 0.71 0.92 0.95 1.07 0.99 0.95 0.88 0.94 0.95 0.99 0.92 0.74 0.78 0.80 0.90 1.04 1.11 1.25 1.25 1.23 1.18 1.25 1.34 1.45 1.67 1.68 1.39 1.37 1.68 1.33 1.48 1.49 1.45 1.85 1.28 1.09
0.97 0.96 0.95 0.99 0.83 0.68 0.85 0.65 0.62 0.45 0.57 0.64 0.61 0.66 0.73 0.67 1.20 1.18 0.92 0.96 1.16 1.45 1.84 1.89 2.00 2.06 1.91 1.61 1.39 1.45 1.74 2.09 2.12 1.79 1.57 1.51 1.32 1.27 1.20 1.13 1.17 1.35 0.94
1.35 1.29 1.26 1.19 1.32 0.97 1.35 1.18 1.08 0.91 0.96 0.91 0.77 0.75 1.24 0.94 1.27 0.98 0.85 0.80 1.01 1.08 1.16 1.26 1.36 1.41 1.34 1.33 1.55 1.41 1.49 1.78 1.87 1.83 1.42 1.42 1.19 1.30 1.47 1.17 0.96 0.87 0.76

GFSMA_prec_precacc_162.txt.gz
Total_Precipitation_Accumulation
0.70 1.08 0.84 0.83 0.62 1.22 0.79 0.54 0.57 0.53 0.61 0.68 0.60 0.50 0.28 0.37 0.22 0.26 0.37 0.54 0.60 0.69 1.03 0.99 0.89 0.85 0.55 0.33 0.31 0.32 0.37 0.45 0.50 0.55 0.67 0.65 0.47 0.43 0.33 0.33 0.24 0.21 0.27
0.72 1.15 1.02 0.87 0.61 0.87 0.79 0.68 0.45 0.52 0.50 0.70 0.56 0.49 0.36 0.37 0.18 0.18 0.29 0.45 0.51 0.56 0.84 1.22 1.30 1.06 0.55 0.20 0.11 0.13 0.19 0.23 0.34 0.48 0.52 0.54 0.47 0.33 0.30 0.25 0.24 0.22 0.23
0.48 0.74 0.94 0.73 0.64 0.72 0.67 0.83 0.77 0.60 0.59 0.86 0.60 0.51 0.40 0.45 0.25 0.12 0.20 0.29 0.31 0.40 0.55 0.79 1.01 0.94 0.64 0.27 0.12 0.05 0.07 0.07 0.12 0.24 0.31 0.37 0.48 0.38 0.35 0.32 0.30 0.32 0.30
0.38 0.47 0.71 0.92 0.80 0.82 0.59 0.56 0.77 0.61 0.56 0.77 0.78 0.54 0.52 0.45 0.42 0.13 0.13 0.30 0.32 0.32 0.45 0.52 0.73 0.80 0.72 0.45 0.21 0.06 0.04 0.10 0.09 0.16 0.20 0.30 0.52 0.45 0.43 0.35 0.38 0.44 0.42
0.61 0.52 0.53 0.68 1.04 0.77 0.60 0.64 0.65 0.67 0.48 0.61 0.80 0.69 0.60 0.47 0.54 0.46 0.20 0.21 0.35 0.34 0.32 0.39 0.44 0.45 0.45 0.42 0.33 0.19 0.08 0.06 0.08 0.11 0.17 0.16 0.25 0.62 0.80 0.67 0.44 0.46 0.54
0.97 0.93 0.82 0.61 0.70 0.83 0.69 0.83 0.89 0.81 0.67 0.53 0.69 0.78 0.57 0.66 0.59 0.63 0.40 0.26 0.32 0.38 0.35 0.41 0.39 0.38 0.38 0.40 0.39 0.30 0.16 0.13 0.12 0.11 0.15 0.11 0.14 0.20 0.32 0.57 0.79 0.82 0.74
1.19 1.54 1.49 1.32 0.85 0.53 0.65 0.75 1.13 1.16 1.08 0.93 1.25 1.23 0.90 0.62 0.66 0.60 0.52 0.44 0.51 0.44 0.56 0.49 0.59 0.51 0.53 0.48 0.38 0.27 0.21 0.19 0.17 0.17 0.16 0.10 0.07 0.07 0.20 0.37 0.66 0.95 1.20
1.26 1.36 1.48 1.72 1.87 1.23 0.76 0.73 1.08 1.52 1.63 1.55 1.64 1.42 1.09 0.86 0.61 0.66 0.54 0.42 0.38 0.41 0.56 0.72 0.54 0.55 0.65 0.64 0.44 0.36 0.32 0.33 0.26 0.24 0.34 0.24 0.16 0.04 0.04 0.06 0.23 0.66 0.95
0.84 1.22 1.44 1.38 1.39 1.29 1.16 1.12 1.32 1.75 1.65 1.61 1.42 1.71 1.44 1.09 0.81 0.67 0.58 0.44 0.57 0.70 0.66 0.76 0.88 0.67 0.58 0.57 0.51 0.46 0.32 0.31 0.36 0.33 0.36 0.19 0.12 0.05 0.05 0.06 0.11 0.24 0.50
0.58 0.88 1.20 1.09 1.33 1.57 1.09 0.90 0.69 1.09 1.59 1.74 2.01 1.57 0.92 0.77 0.72 0.75 0.66 0.57 0.50 0.65 0.96 1.52 1.72 1.90 1.89 1.84 1.65 1.34 1.22 0.98 0.37 0.27 0.32 0.30 0.17 0.11 0.08 0.10 0.12 0.16 0.25
0.62 0.69 0.94 1.07 1.11 1.11 1.13 1.00 0.66 0.58 0.85 1.11 1.12 1.32 1.62 1.35 0.96 0.65 0.60 0.50 0.42 0.33 0.41 0.46 0.86 1.31 1.36 1.22 1.21 1.24 1.11 1.22 0.85 0.40 0.31 0.26 0.21 0.18 0.14 0.11 0.12 0.15 0.25
0.84 0.88 0.94 1.05 1.57 1.77 1.56 1.34 1.55 1.33 1.02 1.06 1.27 1.26 0.95 0.88 0.96 1.05 0.86 0.61 0.58 0.41 0.35 0.43 0.51 0.62 0.72 0.67 0.70 0.85 0.70 0.59 0.72 0.64 0.35 0.27 0.17 0.13 0.19 0.20 0.20 0.20 0.27
1.95 2.04 2.01 1.72 1.62 1.87 2.55 2.03 1.97 1.98 2.04 1.66 1.49 1.29 1.25 1.00 0.81 0.83 0.90 0.89 0.95 0.77 0.70 0.62 0.54 0.51 0.60 0.91 0.83 0.76 0.74 0.79 0.70 0.72 0.56 0.34 0.31 0.24 0.15 0.19 0.23 0.27 0.30
2.66 3.02 3.48 3.70 2.99 2.39 2.63 2.75 2.31 2.25 2.72 2.72 2.26 1.84 1.47 1.48 1.51 1.39 1.28 1.55 1.42 1.04 0.81 0.61 0.51 0.59 0.64 0.73 0.83 1.14 1.09 0.97 0.97 0.91 0.78 0.59 0.42 0.37 0.34 0.25 0.27 0.33 0.32
1.65 2.10 2.32 2.52 3.15 3.23 2.80 2.76 2.59 2.18 2.25 2.56 2.55 2.57 2.47 1.76 1.50 1.55 1.64 1.71 1.94 1.43 0.68 0.47 0.74 0.77 0.84 0.86 0.89 0.94 0.88 0.92 1.03 1.01 0.93 0.77 0.63 0.57 0.49 0.42 0.39 0.33 0.34
2.05 1.60 1.76 1.83 1.66 1.61 1.77 2.16 2.37 2.19 2.15 2.17 2.19 2.28 2.46 2.53 2.23 2.05 2.01 1.94 1.91 1.57 1.18 0.77 0.84 0.67 0.82 0.75 0.88 0.90 0.72 0.80 0.95 1.11 1.08 1.11 1.13 0.85 0.67 0.62 0.57 0.49 0.40
2.02 1.90 1.60 1.60 1.61 1.42 1.49 1.59 1.58 1.68 1.95 2.08 1.95 2.08 2.38 2.79 2.68 2.65 2.54 2.34 2.01 2.01 2.37 1.83 1.22 1.07 0.97 0.78 0.74 0.74 0.71 0.61 0.53 0.69 0.91 1.05 1.17 1.48 1.06 0.77 0.73 0.64 0.39
1.67 1.32 1.18 1.12 1.19 1.31 1.46 1.47 1.46 1.52 1.41 1.41 1.60 1.57 1.67 1.85 2.06 2.20 2.43 2.70 2.69 2.63 2.69 2.56 2.50 2.25 1.82 1.42 1.17 0.95 0.69 0.62 0.52 0.61 0.68 0.74 0.82 0.89 1.05 0.98 0.76 0.76 0.61
1.44 1.41 1.16 1.07 1.06 1.19 1.31 1.64 1.52 1.34 1.44 1.70 1.75 1.78 1.75 1.70 1.73 1.85 1.94 1.92 1.79 1.87 2.25 2.52 2.51 2.36 2.14 1.75 1.44 1.18 1.12 0.93 0.66 0.65 0.65 0.74 0.81 0.76 0.80 0.87 0.94 0.87 0.77
1.45 1.78 1.89 1.94 1.72 1.39 1.40 1.36 1.31 1.33 1.23 1.56 1.68 1.41 1.61 1.69 1.51 1.41 1.58 1.69 1.62 1.78 1.96 2.24 2.40 2.23 2.07 1.97 2.00 1.85 1.64 1.32 1.33 1.13 0.95 0.79 0.80 0.88 0.89 0.89 0.87 0.97 1.06
0.77 1.33 1.40 1.56 1.43 1.17 1.16 0.84 0.64 1.01 1.13 1.05 1.32 1.14 1.01 1.12 1.18 0.88 0.82 1.00 1.30 1.60 1.86 1.99 2.21 2.20 2.01 1.89 2.03 2.03 2.03 1.87 1.93 1.56 1.33 1.27 1.22 1.12 1.11 1.16 1.17 1.16 1.14
0.41 0.61 0.73 0.86 1.01 0.80 0.87 0.52 0.45 0.55 0.62 0.56 0.58 0.55 0.60 0.76 0.63 0.77 0.83 0.80 0.79 0.92 1.12 1.33 1.46 1.54 1.45 1.50 1.64 1.90 1.99 2.29 2.22 1.53 1.72 1.74 1.55 1.57 1.59 1.61 1.94 1.61 1.26
0.66 0.57 0.60 0.63 0.82 0.97 1.09 0.95 0.79 0.59 0.63 0.73 0.75 0.71 0.60 0.59 0.66 0.41 0.61 0.75 0.85 1.03 1.07 1.02 1.15 1.14 1.14 1.13 1.28 1.50 1.63 1.71 1.64 1.37 1.70 1.94 1.72 1.76 1.70 1.86 2.31 1.98 1.82
0.81 0.73 0.70 0.62 0.48 0.53 0.69 0.71 0.92 0.95 1.07 0.99 0.95 0.88 0.94 0.95 0.99 0.92 0.74 0.78 0.80 0.90 1.04 1.13 1.28 1.26 1.24 1.18 1.26 1.35 1.46 1.69 1.68 1.40 1.38 1.69 1.35 1.54 1.58 1.55 1.96 1.40 1.21
0.97 0.96 0.95 0.99 0.83 0.68 0.85 0.65 0.62 0.45 0.57 0.64 0.61 0.66 0.73 0.67 1.20 1.18 0.92 0.96 1.16 1.45 1.84 1.90 2.00 2.06 1.91 1.61 1.39 1.45 1.74 2.09 2.13 1.79 1.57 1.51 1.33 1.29 1.24 1.15 1.18 1.35 0.94
1.35 1.29 1.26 1.19 1.32 0.97 1.35 1.18 1.08 0.91 0.96 0.91 0.77 0.75 1.24 0.94 1.27 0.98 0.85 0.80 1.01 1.08 1.16 1.26 1.36 1.41 1.34 1.33 1.55 1.41 1.50 1.79 1.87 1.83 1.42 1.42 1.19 1.30 1.47 1.17 0.96 0.87 0.77

GFSMA_prec_precacc_165.txt.gz
Total_Precipitation_Accumulation
0.70 1.08 0.84 0.83 0.62 1.22 0.79 0.54 0.57 0.53 0.61 0.68 0.60 0.50 0.28 0.37 0.22 0.27 0.37 0.55 0.60 0.71 1.05 1.01 0.93 0.89 0.61 0.39 0.35 0.34 0.37 0.45 0.50 0.55 0.67 0.65 0.47 0.43 0.34 0.35 0.26 0.23 0.29
0.72 1.15 1.02 0.87 0.61 0.87 0.79 0.68 0.45 0.52 0.50 0.70 0.56 0.49 0.36 0.37 0.18 0.18 0.29 0.45 0.51 0.56 0.85 1.23 1.36 1.14 0.60 0.26 0.14 0.15 0.20 0.23 0.34 0.48 0.52 0.54 0.47 0.33 0.30 0.26 0.25 0.23 0.24
0.48 0.74 0.94 0.73 0.64 0.72 0.67 0.83 0.77 0.60 0.59 0.86 0.60 0.51 0.40 0.45 0.25 0.12 0.20 0.29 0.31 0.40 0.55 0.79 1.04 1.03 0.72 0.33 0.14 0.06 0.07 0.07 0.12 0.24 0.31 0.37 0.48 0.38 0.35 0.32 0.31 0.34 0.32
0.38 0.47 0.71 0.92 0.80 0.82 0.59 0.56 0.77 0.61 0.56 0.77 0.78 0.54 0.52 0.45 0.42 0.13 0.13 0.30 0.32 0.32 0.45 0.52 0.73 0.85 0.84 0.57 0.27 0.08 0.04 0.10 0.09 0.16 0.20 0.30 0.52 0.45 0.43 0.35 0.38 0.45 0.44
0.61 0.52 0.53 0.68 1.04 0.77 0.60 0.64 0.65 0.67 0.48 0.61 0.80 0.69 0.60 0.47 0.54 0.46 0.20 0.21 0.35 0.34 0.32 0.39 0.44 0.48 0.57 0.65 0.54 0.31 0.15 0.07 0.08 0.11 0.17 0.16 0.25 0.62 0.80 0.67 0.44 0.46 0.54
0.97 0.93 0.82 0.61 0.70 0.83 0.69 0.83 0.89 0.81 0.67 0.53 0.69 0.78 0.57 0.66 0.59 0.63 0.40 0.26 0.32 0.38 0.35 0.41 0.39 0.38 0.44 0.59 0.63 0.51 0.29 0.18 0.14 0.11 0.15 0.11 0.14 0.20 0.32 0.57 0.79 0.82 0.74
1.19 1.54 1.49 1.32 0.85 0.53 0.65 0.75 1.13 1.16 1.08 0.93 1.25 1.23 0.90 0.62 0.66 0.60 0.52 0.44 0.51 0.44 0.56 0.49 0.59 0.51 0.54 0.54 0.54 0.45 0.35 0.24 0.18 0.17 0.16 0.10 0.07 0.07 0.20 0.37 0.66 0.95 1.20
1.26 1.36 1.48 1.72 1.87 1.23 0.76 0.73 1.08 1.52 1.63 1.55 1.64 1.42 1.09 0.86 0.61 0.66 0.54 0.42 0.38 0.41 0.56 0.72 0.54 0.55 0.67 0.70 0.52 0.51 0.52 0.49 0.32 0.25 0.34 0.24 0.16 0.04 0.04 0.06 0.23 0.66 0.95
0.84 1.22 1.44 1.38 1.39 1.29 1.16 1.12 1.32 1.76 1.65 1.61 1.42 1.72 1.45 1.10 0.81 0.67 0.58 0.44 0.57 0.70 0.66 0.77 0.89 0.69 0.59 0.60 0.56 0.52 0.45 0.54 0.71 0.64 0.48 0.19 0.12 0.05 0.05 0.06 0.11 0.24 0.50
0.58 0.88 1.20 1.09 1.33 1.57 1.09 0.90 0.69 1.09 1.59 1.74 2.01 1.57 0.93 0.78 0.74 0.76 0.66 0.57 0.50 0.65 0.96 1.52 1.72 1.92 1.91 1.86 1.67 1.39 1.31 1.29 1.27 1.44 1.38 0.73 0.25 0.12 0.08 0.10 0.12 0.16 0.25
0.62 0.69 0.94 1.07 1.11 1.11 1.13 1.00 0.66 0.58 0.86 1.11 1.13 1.32 1.62 1.35 0.97 0.67 0.61 0.50 0.42 0.33 0.41 0.46 0.86 1.31 1.36 1.23 1.25 1.29 1.18 1.46 1.41 1.36 1.36 0.93 0.50 0.31 0.17 0.11 0.12 0.15 0.25
0.84 0.88 0.94 1.05 1.57 1.77 1.56 1.34 1.55 1.33 1.02 1.07 1.27 1.26 0.96 0.89 0.97 1.07 0.87 0.62 0.58 0.41 0.35 0.43 0.51 0.62 0.72 0.67 0.71 0.87 0.72 0.61 0.78 0.82 0.78 0.63 0.44 0.34 0.31 0.23 0.20 0.20 0.27
1.95 2.04 2.01 1.72 1.62 1.87 2.55 2.03 1.97 1.99 2.05 1.67 1.50 1.30 1.25 1.01 0.82 0.85 0.91 0.89 0.95 0.77 0.70 0.62 0.54 0.51 0.60 0.91 0.84 0.78 0.77 0.80 0.70 0.73 0.63 0.52 0.47 0.44 0.34 0.34 0.29 0.28 0.30
2.66 3.02 3.48 3.70 2.99 2.39 2.63 2.75 2.31 2.25 2.72 2.72 2.27 1.85 1.48 1.49 1.52 1.41 1.31 1.57 1.42 1.04 0.82 0.62 0.51 0.59 0.64 0.73 0.84 1.17 1.11 0.99 0.98 0.91 0.79 0.68 0.63 0.58 0.50 0.44 0.45 0.45 0.37
1.65 2.10 2.32 2.52 3.15 3.23 2.80 2.76 2.59 2.18 2.25 2.56 2.55 2.58 2.48 1.77 1.52 1.57 1.66 1.74 1.96 1.44 0.69 0.47 0.75 0.78 0.85 0.86 0.91 0.94 0.90 0.97 1.06 1.04 0.94 0.79 0.69 0.73 0.81 0.72 0.63 0.53 0.46
2.05 1.60 1.76 1.83 1.66 1.61 1.77 2.16 2.37 2.19 2.15 2.17 2.19 2.29 2.47 2.55 2.25 2.08 2.04 1.97 1.94 1.60 1.22 0.79 0.86 0.67 0.83 0.76 0.89 0.91 0.74 0.81 0.97 1.15 1.15 1.20 1.21 1.02 0.86 0.98 0.99 0.78 0.61
2.02 1.90 1.60 1.60 1.61 1.42 1.49 1.59 1.58 1.68 1.95 2.08 1.95 2.08 2.39 2.79 2.69 2.67 2.57 2.36 2.03 2.03 2.42 1.88 1.24 1.09 0.98 0.78 0.75 0.74 0.72 0.61 0.54 0.72 0.95 1.12 1.30 1.78 1.63 1.26 1.23 1.37 1.07
1.67 1.32 1.18 1.12 1.19 1.31 1.46 1.47 1.46 1.52 1.41 1.41 1.60 1.57 1.67 1.86 2.06 2.20 2.43 2.72 2.72 2.66 2.72 2.63 2.55 2.30 1.86 1.45 1.19 0.96 0.70 0.62 0.52 0.64 0.71 0.77 0.90 1.08 1.36 1.51 1.29 1.29 1.52
1.44 1.41 1.16 1.07 1.06 1.19 1.31 1.64 1.52 1.34 1.44 1.70 1.75 1.79 1.75 1.70 1.73 1.85 1.95 1.93 1.82 1.90 2.29 2.56 2.57 2.43 2.19 1.79 1.48 1.21 1.14 0.94 0.66 0.67 0.66 0.75 0.83 0.79 0.87 1.05 1.32 1.34 1.22
1.45 1.78 1.89 1.94 1.72 1.39 1.40 1.36 1.31 1.33 1.23 1.56 1.68 1.41 1.61 1.69 1.51 1.41 1.58 1.69 1.63 1.79 2.00 2.29 2.45 2.30 2.14 2.03 2.03 1.89 1.68 1.36 1.35 1.15 0.97 0.80 0.80 0.89 0.90 0.91 0.92 1.06 1.28
0.77 1.33 1.40 1.56 1.43 1.17 1.16 0.84 0.64 1.01 1.13 1.05 1.32 1.14 1.01 1.12 1.18 0.88 0.82 1.00 1.30 1.60 1.87 2.02 2.26 2.27 2.11 2.01 2.12 2.10 2.08 1.93 2.00 1.61 1.35 1.28 1.22 1.12 1.11 1.17 1.19 1.19 1.18
0.41 0.61 0.73 0.86 1.01 0.80 0.87 0.52 0.45 0.55 0.62 0.56 0.58 0.55 0.60 0.76 0.63 0.77 0.83 0.80 0.79 0.93 1.12 1.34 1.48 1.59 1.53 1.59 1.75 1.99 2.05 2.36 2.30 1.60 1.79 1.78 1.57 1.59 1.64 1.67 2.00 1.68 1.36
0.66 0.57 0.60 0.63 0.82 0.97 1.09 0.95 0.79 0.59 0.63 0.73 0.75 0.71 0.60 0.59 0.66 0.41 0.61 0.75 0.85 1.03 1.07 1.03 1.16 1.16 1.18 1.15 1.32 1.56 1.68 1.76 1.72 1.44 1.75 1.99 1.78 1.81 1.74 1.90 2.37 2.10 1.97
0.81 0.73 0.70 0.62 0.48 0.53 0.69 0.71 0.92 0.95 1.07 0.99 0.95 0.88 0.94 0.95 0.99 0.92 0.74 0.78 0.80 0.90 1.04 1.13 1.29 1.28 1.25 1.19 1.27 1.37 1.49 1.71 1.69 1.41 1.39 1.69 1.36 1.56 1.59 1.55 1.96 1.42 1.28
0.97 0.96 0.95 0.99 0.83 0.68 0.85 0.65 0.62 0.45 0.57 0.64 0.61 0.66 0.73 0.67 1.20 1.18 0.92 0.96 1.16 1.45 1.84 1.90 2.00 2.06 1.91 1.61 1.39 1.45 1.74 2.09 2.13 1.80 1.57 1.51 1.33 1.29 1.24 1.15 1.18 1.35 0.95
1.35 1.29 1.26 1.19 1.32 0.97 1.35 1.18 1.08 0.91 0.96 0.91 0.77 0.75 1.24 0.94 1.27 0.98 0.85 0.80 1.01 1.08 1.16 1.26 1.36 1.41 1.34 1.33 1.55 1.41 1.50 1.79 1.87 1.83 1.42 1.42 1.19 1.30 1.47 1.17 0.96 0.87 0.77

GFSMA_prec_precacc_168.txt.gz
Total_Precipitation_Accumulation
0.70 1.08 0.84 0.83 0.62 1.22 0.79 0.54 0.57 0.53 0.61 0.68 0.60 0.50 0.28 0.37 0.22 0.27 0.37 0.55 0.60 0.71 1.05 1.01 0.94 0.91 0.62 0.39 0.36 0.36 0.41 0.48 0.52 0.56 0.68 0.65 0.47 0.43 0.34 0.35 0.26 0.23 0.31
0.72 1.15 1.02 0.87 0.61 0.87 0.79 0.68 0.45 0.52 0.50 0.70 0.56 0.49 0.36 0.37 0.18 0.18 0.29 0.45 0.51 0.56 0.85 1.23 1.37 1.17 0.64 0.29 0.15 0.16 0.22 0.26 0.36 0.50 0.54 0.54 0.47 0.33 0.30 0.26 0.25 0.24 0.25
0.48 0.74 0.94 0.73 0.64 0.72 0.67 0.83 0.77 0.60 0.59 0.86 0.60 0.51 0.40 0.45 0.25 0.12 0.20 0.29 0.31 0.40 0.55 0.79 1.04 1.04 0.75 0.36 0.17 0.06 0.07 0.07 0.12 0.24 0.32 0.37 0.48 0.38 0.35 0.32 0.31 0.35 0.33
0.38 0.47 0.71 0.92 0.80 0.82 0.59 0.56 0.77 0.61 0.56 0.77 0.78 0.54 0.52 0.45 0.42 0.13 0.13 0.30 0.32 0.32 0.45 0.52 0.73 0.85 0.85 0.59 0.32 0.12 0.06 0.10 0.09 0.16 0.20 0.30 0.52 0.45 0.43 0.35 0.38 0.45 0.45
0.61 0.52 0.53 0.68 1.04 0.77 0.60 0.64 0.65 0.67 0.48 0.61 0.80 0.69 0.60 0.47 0.54 0.46 0.20 0.21 0.35 0.34 0.32 0.39 0.44 0.48 0.58 0.66 0.57 0.36 0.21 0.14 0.09 0.11 0.17 0.16 0.25 0.62 0.80 0.67 0.44 0.46 0.55
0.97 0.93 0.82 0.61 0.70 0.83 0.69 0.83 0.89 0.81 0.67 0.53 0.69 0.78 0.57 0.66 0.59 0.63 0.40 0.26 0.32 0.38 0.35 0.41 0.39 0.38 0.44 0.60 0.65 0.55 0.36 0.25 0.18 0.11 0.15 0.12 0.14 0.20 0.32 0.57 0.79 0.82 0.74
1.19 1.54 1.49 1.32 0.85 0.53 0.65 0.75 1.13 1.16 1.08 0.93 1.25 1.23 0.90 0.62 0.66 0.60 0.52 0.44 0.51 0.44 0.56 0.49 0.59 0.51 0.54 0.54 0.55 0.48 0.40 0.31 0.24 0.24 0.22 0.11 0.07 0.07 0.20 0.37 0.66 0.95 1.20
1.26 1.36 1.48 1.72 1.87 1.23 0.76 0.73 1.08 1.52 1.63 1.55 1.64 1.42 1.09 0.86 0.61 0.66 0.54 0.42 0.38 0.41 0.56 0.72 0.55 0.56 0.68 0.71 0.52 0.53 0.56 0.57 0.42 0.38 0.53 0.37 0.18 0.04 0.04 0.06 0.23 0.66 0.95
0.84 1.22 1.44 1.38 1.39 1.29 1.16 1.12 1.32 1.76 1.65 1.61 1.42 1.72 1.46 1.10 0.81 0.67 0.58 0.44 0.57 0.70 0.66 0.77 0.89 0.69 0.60 0.60 0.57 0.53 0.47 0.57 0.78 0.78 0.81 0.59 0.32 0.10 0.08 0.08 0.11 0.24 0.50
0.58 0.88 1.20 1.09 1.33 1.57 1.09 0.90 0.69 1.09 1.60 1.75 2.01 1.57 0.94 0.80 0.75 0.76 0.66 0.57 0.50 0.65 0.96 1.52 1.72 1.92 1.91 1.86 1.68 1.40 1.32 1.30 1.29 1.51 1.66 1.56 1.29 0.94 0.43 0.22 0.16 0.16 0.25
0.62 0.69 0.94 1.07 1.11 1.11 1.13 1.00 0.66 0.58 0.86 1.11 1.13 1.33 1.63 1.35 0.98 0.69 0.61 0.50 0.42 0.33 0.41 0.46 0.86 1.32 1.36 1.23 1.25 1.29 1.19 1.47 1.42 1.41 1.52 1.41 1.24 1.16 0.70 0.32 0.23 0.17 0.25
0.84 0.88 0.94 1.05 1.57 1.77 1.56 1.34 1.55 1.33 1.02 1.07 1.28 1.27 0.97 0.90 0.97 1.08 0.88 0.62 0.58 0.41 0.35 0.44 0.52 0.62 0.72 0.67 0.72 0.89 0.72 0.62 0.80 0.84 0.81 0.82 0.71 0.65 0.62 0.51 0.38 0.31 0.31
1.95 2.04 2.01 1.72 1.62 1.87 2.55 2.03 1.97 1.99 2.05 1.67 1.50 1.31 1.26 1.02 0.84 0.86 0.93 0.90 0.96 0.78 0.70 0.63 0.55 0.51 0.61 0.91 0.84 0.80 0.78 0.81 0.72 0.75 0.66 0.54 0.47 0.45 0.39 0.45 0.43 0.39 0.34
2.66 3.02 3.48 3.70 2.99 2.39 2.63 2.75 2.31 2.25 2.72 2.72 2.27 1.85 1.49 1.50 1.54 1.42 1.33 1.58 1.43 1.04 0.83 0.64 0.55 0.61 0.66 0.75 0.86 1.18 1.12 1.01 1.00 0.92 0.80 0.69 0.65 0.59 0.52 0.47 0.50 0.51 0.48
1.65 2.10 2.32 2.52 3.15 3.23 2.80 2.76 2.59 2.18 2.25 2.56 2.56 2.59 2.48 1.78 1.53 1.59 1.69 1.77 1.99 1.45 0.69 0.48 0.78 0.81 0.88 0.88 0.93 0.95 0.90 0.99 1.08 1.06 0.96 0.80 0.71 0.76 0.83 0.75 0.67 0.62 0.61
2.05 1.60 1.76 1.83 1.66 1.61 1.77 2.16 2.37 2.19 2.15 2.17 2.19 2.29 2.47 2.55 2.25 2.08 2.06 2.00 1.97 1.63 1.25 0.81 0.88 0.69 0.84 0.76 0.91 0.91 0.75 0.83 0.99 1.17 1.19 1.26 1.27 1.05 0.89 1.00 1.04 0.91 0.78
2.02 1.90 1.60 1.60 1.61 1.42 1.49 1.59 1.58 1.68 1.95 2.08 1.95 2.08 2.39 2.79 2.69 2.67 2.58 2.39 2.06 2.08 2.49 1.91 1.26 1.12 1.00 0.80 0.76 0.75 0.73 0.61 0.54 0.73 0.98 1.19 1.40 1.91 1.74 1.34 1.31 1.48 1.25
1.67 1.32 1.18 1.12 1.19 1.31 1.46 1.47 1.46 1.52 1.41 1.41 1.60 1.57 1.68 1.86 2.06 2.21 2.44 2.72 2.74 2.72 2.79 2.68 2.61 2.35 1.91 1.49 1.23 1.00 0.72 0.63 0.53 0.66 0.73 0.80 0.95 1.21 1.60 1.76 1.44 1.40 1.62
1.44 1.41 1.16 1.07 1.06 1.19 1.31 1.64 1.52 1.34 1.44 1.70 1.75 1.79 1.75 1.70 1.73 1.85 1.95 1.93 1.83 1.92 2.32 2.61 2.63 2.48 2.24 1.84 1.53 1.25 1.18 0.96 0.68 0.69 0.67 0.76 0.86 0.84 0.94 1.23 1.58 1.55 1.37
1.45 1.78 1.89 1.94 1.72 1.39 1.40 1.36 1.31 1.33 1.23 1.56 1.68 1.41 1.61 1.69 1.51 1.41 1.58 1.69 1.63 1.79 2.00 2.30 2.47 2.32 2.17 2.07 2.07 1.93 1.71 1.40 1.40 1.18 0.99 0.81 0.81 0.90 0.93 0.94 0.96 1.16 1.40
0.77 1.33 1.40 1.56 1.43 1.17 1.16 0.84 0.64 1.01 1.13 1.05 1.32 1.14 1.01 1.12 1.18 0.88 0.82 1.00 1.30 1.60 1.87 2.02 2.26 2.27 2.12 2.02 2.16 2.16 2.13 1.99 2.04 1.65 1.38 1.32 1.25 1.14 1.13 1.19 1.20 1.22 1.22
0.41 0.61 0.73 0.86 1.01 0.80 0.87 0.52 0.45 0.55 0.62 0.56 0.58 0.55 0.60 0.76 0.63 0.77 0.83 0.81 0.79 0.93 1.13 1.34 1.48 1.59 1.54 1.60 1.76 2.02 2.08 2.38 2.32 1.61 1.81 1.81 1.60 1.63 1.69 1.72 2.03 1.70 1.37
0.66 0.57 0.60 0.63 0.82 0.97 1.09 0.95 0.79 0.59 0.63 0.73 0.75 0.71 0.60 0.59 0.66 0.41 0.61 0.75 0.85 1.03 1.07 1.03 1.16 1.18 1.18 1.16 1.33 1.56 1.69 1.77 1.75 1.48 1.78 2.02 1.81 1.83 1.76 1.94 2.40 2.13 2.00
0.81 0.73 0.70 0.62 0.48 0.53 0.69 0.71 0.92 0.95 1.07 0.99 0.95 0.88 0.94 0.95 0.99 0.92 0.74 0.78 0.80 0.90 1.04 1.13 1.29 1.29 1.25 1.19 1.27 1.37 1.50 1.72 1.70 1.41 1.39 1.69 1.37 1.57 1.59 1.55 1.97 1.43 1.29
0.97 0.96 0.95 0.99 0.83 0.68 0.85 0.65 0.62 0.45 0.57 0.64 0.61 0.66 0.73 0.67 1.20 1.18 0.92 0.96 1.16 1.45 1.84 1.90 2.00 2.06 1.92 1.61 1.39 1.45 1.74 2.09 2.14 1.80 1.58 1.52 1.33 1.29 1.24 1.15 1.18 1.36 0.96
1.35 1.29 1.26 1.19 1.32 0.97 1.35 1.18 1.08 0.91 0.96 0.91 0.77 0.75 1.24 0.94 1.27 0.98 0.85 0.80 1.01 1.08 1.16 1.26 1.36 1.41 1.34 1.33 1.55 1.41 1.50 1.79 1.87 1.83 1.42 1.43 1.19 1.30 1.47 1.17 0.96 0.87 0.77

GFSMA_prec_precacc_171.txt.gz
Total_Precipitation_Accumulation
0.70 1.08 0.84 0.83 0.62 1.22 0.79 0.54 0.57 0.53 0.61 0.68 0.60 0.50 0.28 0.37 0.22 0.27 0.37 0.55 0.60 0.71 1.05 1.01 0.95 0.94 0.65 0.41 0.36 0.36 0.41 0.48 0.52 0.57 0.70 0.67 0.47 0.43 0.34 0.35 0.26 0.23 0.31
0.72 1.15 1.02 0.87 0.61 0.87 0.79 0.68 0.45 0.52 0.50 0.70 0.56 0.49 0.36 0.37 0.18 0.18 0.29 0.45 0.51 0.56 0.85 1.23 1.37 1.18 0.65 0.31 0.16 0.16 0.22 0.26 0.36 0.50 0.55 0.55 0.47 0.34 0.30 0.26 0.25 0.24 0.25
0.48 0.74 0.94 0.73 0.64 0.72 0.67 0.83 0.77 0.60 0.59 0.86 0.60 0.51 0.40 0.45 0.25 0.12 0.20 0.29 0.31 0.40 0.55 0.79 1.04 1.04 0.76 0.36 0.17 0.07 0.08 0.07 0.12 0.24 0.32 0.37 0.48 0.38 0.35 0.32 0.31 0.35 0.33
0.38 0.47 0.71 0.92 0.80 0.82 0.59 0.56 0.77 0.61 0.56 0.77 0.78 0.54 0.52 0.45 0.42 0.13 0.13 0.30 0.32 0.32 0.45 0.52 0.73 0.85 0.85 0.59 0.32 0.14 0.08 0.11 0.09 0.16 0.20 0.30 0.52 0.45 0.43 0.35 0.38 0.45 0.45
0.61 0.52 0.53 0.68 1.04 0.77 0.60 0.64 0.65 0.67 0.48 0.61 0.80 0.69 0.60 0.47 0.54 0.46 0.20 0.21 0.35 0.34 0.32 0.39 0.44 0.48 0.58 0.66 0.57 0.37 0.22 0.17 0.12 0.12 0.17 0.16 0.25 0.62 0.80 0.67 0.44 0.46 0.55
0.97 0.93 0.82 0.61 0.70 0.83 0.69 0.83 0.89 0.81 0.67 0.53 0.69 0.78 0.57 0.66 0.59 0.63 0.40 0.26 0.32 0.38 0.35 0.41 0.39 0.38 0.44 0.60 0.65 0.55 0.36 0.27 0.24 0.17 0.16 0.12 0.14 0.20 0.32 0.57 0.79 0.82 0.74
1.19 1.54 1.49 1.32 0.85 0.53 0.65 0.75 1.13 1.16 1.08 0.93 1.25 1.23 0.90 0.62 0.66 0.60 0.52 0.44 0.51 0.44 0.56 0.49 0.59 0.51 0.55 0.54 0.55 0.48 0.40 0.31 0.27 0.30 0.25 0.13 0.07 0.07 0.20 0.37 0.66 0.95 1.20
1.26 1.36 1.48 1.72 1.87 1.23 0.76 0.73 1.08 1.52 1.63 1.55 1.64 1.42 1.09 0.86 0.61 0.66 0.54 0.42 0.38 0.41 0.56 0.72 0.55 0.56 0.68 0.71 0.53 0.53 0.56 0.57 0.42 0.41 0.58 0.48 0.24 0.07 0.05 0.09 0.25 0.66 0.95
0.84 1.22 1.44 1.38 1.39 1.29 1.16 1.12 1.32 1.76 1.65 1.61 1.42 1.73 1.47 1.10 0.81 0.67 0.58 0.44 0.57 0.70 0.66 0.77 0.89 0.69 0.60 0.60 0.57 0.53 0.47 0.57 0.78 0.78 0.83 0.67 0.53 0.32 0.23 0.19 0.17 0.25 0.50
0.58 0.88 1.20 1.09 1.33 1.57 1.09 0.90 0.69 1.09 1.60 1.75 2.01 1.57 0.94 0.81 0.76 0.77 0.66 0.57 0.50 0.65 0.96 1.52 1.72 1.92 1.91 1.86 1.68 1.41 1.33 1.31 1.29 1.51 1.66 1.57 1.38 1.39 1.41 1.19 0.71 0.31 0.26
0.62 0.69 0.94 1.07 1.11 1.11 1.13 1.00 0.66 0.58 0.86 1.12 1.14 1.33 1.63 1.35 0.99 0.70 0.62 0.50 0.42 0.33 0.41 0.46 0.87 1.32 1.36 1.23 1.25 1.29 1.19 1.47 1.42 1.41 1.52 1.41 1.25 1.24 1.35 1.72 1.47 0.60 0.38
0.84 0.88 0.94 1.05 1.57 1.77 1.56 1.34 1.55 1.33 1.02 1.07 1.28 1.27 0.97 0.91 0.98 1.09 0.89 0.62 0.58 0.41 0.37 0.45 0.52 0.62 0.72 0.68 0.72 0.89 0.72 0.62 0.80 0.85 0.81 0.82 0.72 0.68 0.71 0.69 0.87 0.81 0.53
1.95 2.04 2.01 1.72 1.62 1.87 2.55 2.03 1.97 1.99 2.05 1.67 1.51 1.31 1.26 1.03 0.85 0.88 0.94 0.91 0.96 0.78 0.73 0.65 0.57 0.53 0.62 0.92 0.85 0.80 0.78 0.81 0.72 0.75 0.66 0.55 0.49 0.46 0.41 0.48 0.49 0.49 0.44
2.66 3.02 3.48 3.70 2.99 2.39 2.63 2.75 2.31 2.25 2.72 2.72 2.27 1.86 1.49 1.50 1.55 1.44 1.36 1.61 1.44 1.05 0.87 0.68 0.57 0.63 0.68 0.77 0.88 1.20 1.12 1.01 1.00 0.92 0.80 0.70 0.69 0.64 0.56 0.52 0.54 0.57 0.59
1.65 2.10 2.32 2.52 3.15 3.23 2.80 2.76 2.59 2.18 2.25 2.56 2.56 2.59 2.49 1.78 1.54 1.60 1.71 1.80 2.03 1.47 0.71 0.49 0.80 0.83 0.91 0.91 0.96 0.96 0.91 1.01 1.09 1.08 0.98 0.83 0.74 0.79 0.88 0.82 0.73 0.65 0.63
2.05 1.60 1.76 1.83 1.66 1.61 1.77 2.16 2.37 2.19 2.15 2.17 2.19 2.29 2.47 2.55 2.25 2.09 2.07 2.03 2.00 1.66 1.28 0.84 0.91 0.72 0.87 0.78 0.95 0.92 0.76 0.84 1.00 1.18 1.20 1.31 1.31 1.09 0.92 1.04 1.11 0.96 0.79
2.02 1.90 1.60 1.60 1.61 1.42 1.49 1.59 1.58 1.68 1.95 2.08 1.95 2.08 2.39 2.79 2.69 2.67 2.58 2.39 2.08 2.11 2.53 1.95 1.30 1.16 1.04 0.84 0.79 0.77 0.74 0.62 0.55 0.74 0.99 1.22 1.47 1.97 1.80 1.39 1.34 1.51 1.28
1.67 1.32 1.18 1.12 1.19 1.31 1.46 1.47 1.46 1.52 1.41 1.41 1.60 1.57 1.68 1.86 2.06 2.21 2.44 2.72 2.74 2.72 2.81 2.70 2.62 2.38 1.95 1.53 1.26 1.02 0.74 0.66 0.54 0.67 0.73 0.81 0.99 1.29 1.67 1.84 1.61 1.56 1.71
1.44 1.41 1.16 1.07 1.06 1.19 1.31 1.64 1.52 1.34 1.44 1.70 1.75 1.79 1.75 1.70 1.73 1.85 1.95 1.93 1.83 1.92 2.32 2.61 2.64 2.50 2.26 1.85 1.55 1.28 1.20 0.99 0.71 0.70 0.67 0.77 0.87 0.87 1.01 1.30 1.65 1.71 1.62
1.45 1.78 1.89 1.94 1.72 1.39 1.40 1.36 1.31 1.33 1.23 1.56 1.68 1.41 1.61 1.69 1.51 1.41 1.58 1.69 1.63 1.79 2.00 2.30 2.47 2.32 2.18 2.08 2.08 1.94 1.72 1.41 1.42 1.20 1.02 0.83 0.82 0.91 0.94 0.98 1.03 1.23 1.47
0.77 1.33 1.40 1.56 1.43 1.17 1.16 0.84 0.64 1.01 1.13 1.05 1.32 1.14 1.01 1.12 1.18 0.88 0.82 1.00 1.30 1.60 1.87 2.02 2.26 2.27 2.12 2.03 2.17 2.17 2.14 2.01 2.06 1.67 1.41 1.34 1.27 1.14 1.14 1.20 1.22 1.23 1.25
0.41 0.61 0.73 0.86 1.01 0.80 0.87 0.52 0.45 0.55 0.62 0.56 0.58 0.55 0.60 0.76 0.63 0.77 0.83 0.81 0.79 0.93 1.13 1.34 1.48 1.59 1.54 1.61 1.77 2.02 2.08 2.38 2.32 1.62 1.83 1.83 1.62 1.64 1.70 1.74 2.04 1.71 1.38
0.66 0.57 0.60 0.63 0.82 0.97 1.09 0.95 0.79 0.59 0.63 0.73 0.75 0.71 0.60 0.59 0.66 0.41 0.61 0.75 0.85 1.03 1.07 1.03 1.17 1.18 1.19 1.16 1.33 1.57 1.69 1.77 1.75 1.48 1.79 2.02 1.81 1.84 1.77 1.95 2.41 2.14 2.01
0.81 0.73 0.70 0.62 0.48 0.53 0.69 0.71 0.92 0.95 1.07 0.99 0.95 0.88 0.94 0.95 0.99 0.92 0.74 0.78 0.80 0.90 1.04 1.13 1.29 1.29 1.25 1.19 1.27 1.37 1.50 1.72 1.70 1.41 1.39 1.69 1.37 1.57 1.59 1.55 1.97 1.44 1.29
0.97 0.96 0.95 0.99 0.83 0.68 0.85 0.65 0.62 0.45 0.57 0.64 0.61 0.66 0.73 0.67 1.20 1.18 0.92 0.96 1.16 1.45 1.84 1.90 2.00 2.06 1.92 1.61 1.39 1.45 1.74 2.09 2.14 1.80 1.58 1.52 1.33 1.29 1.24 1.15 1.18 1.36 0.96
1.35 1.29 1.26 1.19 1.32 0.97 1.35 1.18 1.08 0.91 0.96 0.91 0.77 0.75 1.24 0.94 1.27 0.98 0.85 0.80 1.01 1.08 1.16 1.26 1.36 1.41 1.34 1.33 1.55 1.41 1.50 1.79 1.87 1.83 1.42 1.43 1.19 1.30 1.48 1.17 0.96 0.87 0.77

GFSMA_prec_precacc_174.txt.gz
Total_Precipitation_Accumulation
0.70 1.08 0.84 0.83 0.62 1.22 0.79 0.54 0.57 0.53 0.61 0.68 0.60 0.50 0.28 0.37 0.22 0.27 0.37 0.55 0.60 0.71 1.05 1.01 0.95 0.94 0.67 0.44 0.38 0.37 0.41 0.49 0.52 0.57 0.70 0.67 0.47 0.43 0.34 0.35 0.26 0.23 0.31
0.72 1.15 1.02 0.87 0.61 0.87 0.79 0.68 0.45 0.52 0.50 0.70 0.56 0.49 0.36 0.37 0.18 0.18 0.29 0.45 0.51 0.56 0.85 1.23 1.37 1.18 0.65 0.33 0.18 0.19 0.24 0.26 0.36 0.50 0.55 0.55 0.47 0.34 0.30 0.26 0.25 0.24 0.25
0.48 0.74 0.94 0.73 0.64 0.72 0.67 0.83 0.77 0.60 0.59 0.86 0.60 0.51 0.40 0.45 0.25 0.12 0.20 0.29 0.31 0.40 0.55 0.79 1.04 1.04 0.76 0.36 0.17 0.07 0.10 0.09 0.13 0.24 0.32 0.37 0.48 0.38 0.35 0.32 0.31 0.35 0.33
0.38 0.47 0.71 0.92 0.80 0.82 0.59 0.56 0.77 0.61 0.56 0.77 0.78 0.54 0.52 0.45 0.42 0.13 0.13 0.30 0.32 0.32 0.45 0.52 0.73 0.85 0.85 0.59 0.32 0.14 0.08 0.12 0.10 0.16 0.20 0.30 0.52 0.45 0.43 0.35 0.38 0.45 0.45
0.61 0.52 0.53 0.68 1.04 0.77 0.60 0.64 0.65 0.67 0.48 0.61 0.80 0.69 0.60 0.47 0.54 0.46 0.20 0.21 0.35 0.34 0.32 0.39 0.44 0.48 0.58 0.66 0.57 0.37 0.23 0.19 0.15 0.15 0.19 0.17 0.27 0.67 0.86 0.68 0.44 0.46 0.55
0.97 0.93 0.82 0.61 0.70 0.83 0.69 0.83 0.89 0.81 0.67 0.53 0.69 0.78 0.57 0.66 0.59 0.63 0.40 0.26 0.32 0.38 0.35 0.41 0.39 0.38 0.44 0.60 0.65 0.55 0.36 0.27 0.24 0.20 0.22 0.17 0.17 0.27 0.40 0.63 0.80 0.82 0.74
1.19 1.54 1.49 1.32 0.85 0.53 0.65 0.75 1.13 1.16 1.08 0.93 1.25 1.23 0.90 0.62 0.66 0.60 0.52 0.44 0.51 0.44 0.56 0.49 0.59 0.51 0.55 0.55 0.57 0.49 0.41 0.31 0.27 0.31 0.28 0.19 0.21 0.20 0.28 0.49 0.74 0.97 1.20
1.26 1.36 1.48 1.72 1.87 1.23 0.76 0.73 1.08 1.52 1.63 1.55 1.64 1.42 1.09 0.86 0.61 0.66 0.54 0.42 0.38 0.41 0.56 0.72 0.55 0.56 0.69 0.72 0.54 0.53 0.56 0.57 0.42 0.41 0.59 0.50 0.33 0.22 0.20 0.28 0.41 0.74 0.97
0.84 1.22 1.44 1.38 1.39 1.29 1.16 1.12 1.32 1.76 1.65 1.61 1.42 1.73 1.47 1.10 0.81 0.67 0.58 0.44 0.57 0.70 0.66 0.77 0.90 0.70 0.60 0.61 0.57 0.53 0.47 0.57 0.78 0.78 0.83 0.67 0.54 0.39 0.39 0.40 0.38 0.44 0.60
0.58 0.88 1.20 1.09 1.33 1.57 1.09 0.90 0.69 1.09 1.60 1.75 2.01 1.57 0.94 0.81 0.77 0.77 0.66 0.57 0.50 0.65 0.96 1.52 1.73 1.92 1.91 1.87 1.68 1.41 1.33 1.31 1.29 1.52 1.66 1.57 1.38 1.41 1.51 1.39 0.94 0.55 0.44
0.62 0.69 0.94 1.07 1.11 1.11 1.13 1.00 0.66 0.58 0.86 1.12 1.14 1.33 1.63 1.35 0.99 0.71 0.62 0.50 0.42 0.33 0.42 0.47 0.89 1.33 1.36 1.23 1.25 1.30 1.19 1.47 1.42 1.42 1.52 1.41 1.25 1.25 1.39 1.84 1.88 1.39 0.90
0.84 0.88 0.94 1.05 1.57 1.77 1.56 1.34 1.55 1.33 1.02 1.07 1.28 1.27 0.98 0.91 0.98 1.09 0.89 0.62 0.58 0.41 0.40 0.47 0.54 0.64 0.73 0.68 0.74 0.91 0.73 0.63 0.80 0.85 0.82 0.82 0.72 0.69 0.75 0.75 1.00 1.25 1.08
1.95 2.04 2.01 1.72 1.62 1.87 2.55 2.03 1.97 1.99 2.05 1.67 1.51 1.31 1.27 1.03 0.85 0.88 0.95 0.91 0.96 0.78 0.76 0.67 0.58 0.54 0.63 0.93 0.87 0.82 0.78 0.81 0.72 0.76 0.66 0.55 0.50 0.47 0.43 0.50 0.52 0.57 0.54
2.66 3.02 3.48 3.70 2.99 2.39 2.63 2.75 2.31 2.25 2.72 2.73 2.27 1.86 1.49 1.51 1.55 1.45 1.36 1.62 1.45 1.07 0.89 0.70 0.58 0.64 0.71 0.80 0.92 1.24 1.13 1.03 1.00 0.93 0.81 0.71 0.69 0.65 0.59 0.55 0.58 0.62 0.61
1.65 2.10 2.32 2.52 3.15 3.23 2.80 2.76 2.59 2.18 2.25 2.56 2.56 2.59 2.49 1.78 1.54 1.60 1.72 1.81 2.05 1.49 0.74 0.51 0.81 0.84 0.92 0.92 1.00 0.98 0.92 1.03 1.10 1.08 0.98 0.83 0.75 0.80 0.91 0.88 0.79 0.75 0.72
2.05 1.60 1.76 1.83 1.66 1.61 1.77 2.16 2.37 2.19 2.15 2.17 2.19 2.29 2.47 2.55 2.25 2.09 2.08 2.03 2.01 1.69 1.32 0.87 0.93 0.75 0.88 0.79 0.97 0.94 0.77 0.85 1.01 1.19 1.21 1.32 1.33 1.11 0.96 1.09 1.23 1.07 0.87
2.02 1.90 1.60 1.60 1.61 1.42 1.49 1.59 1.58 1.68 1.95 2.08 1.95 2.08 2.39 2.79 2.69 2.67 2.58 2.40 2.09 2.12 2.56 1.97 1.31 1.19 1.06 0.86 0.81 0.78 0.75 0.62 0.56 0.76 1.00 1.23 1.48 1.99 1.84 1.45 1.39 1.63 1.49
1.67 1.32 1.18 1.12 1.19 1.31 1.46 1.47 1.46 1.52 1.41 1.41 1.60 1.57 1.68 1.86 2.06 2.21 2.44 2.73 2.75 2.73 2.81 2.71 2.63 2.39 1.96 1.55 1.29 1.04 0.76 0.67 0.57 0.68 0.74 0.82 1.00 1.29 1.70 1.88 1.66 1.60 1.76
1.44 1.41 1.16 1.07 1.06 1.19 1.31 1.64 1.52 1.34 1.44 1.70 1.75 1.79 1.75 1.70 1.73 1.85 1.95 1.93 1.83 1.92 2.32 2.62 2.64 2.50 2.26 1.86 1.55 1.29 1.21 0.99 0.71 0.71 0.68 0.78 0.88 0.87 1.03 1.37 1.75 1.78 1.66
1.45 1.78 1.89 1.94 1.72 1.39 1.40 1.36 1.31 1.33 1.23 1.56 1.68 1.41 1.61 1.69 1.51 1.41 1.58 1.69 1.63 1.79 2.00 2.30 2.47 2.32 2.18 2.08 2.08 1.94 1.73 1.42 1.42 1.21 1.02 0.84 0.83 0.93 0.95 0.99 1.06 1.29 1.58
0.77 1.33 1.40 1.56 1.43 1.17 1.16 0.84 0.64 1.01 1.13 1.05 1.32 1.14 1.01 1.12 1.18 0.88 0.82 1.00 1.30 1.60 1.87 2.02 2.26 2.27 2.12 2.03 2.17 2.17 2.15 2.02 2.06 1.67 1.42 1.35 1.28 1.15 1.16 1.21 1.23 1.25 1.26
0.41 0.61 0.73 0.86 1.01 0.80 0.87 0.52 0.45 0.55 0.62 0.56 0.58 0.55 0.60 0.76 0.63 0.77 0.83 0.81 0.79 0.93 1.13 1.34 1.48 1.59 1.54 1.61 1.77 2.02 2.09 2.38 2.32 1.62 1.83 1.84 1.62 1.65 1.71 1.76 2.05 1.72 1.39
0.66 0.57 0.60 0.63 0.82 0.97 1.09 0.95 0.79 0.59 0.63 0.73 0.75 0.71 0.60 0.59 0.66 0.41 0.61 0.75 0.85 1.03 1.07 1.03 1.17 1.18 1.19 1.16 1.33 1.57 1.69 1.77 1.75 1.48 1.79 2.03 1.82 1.85 1.77 1.95 2.41 2.14 2.02
0.81 0.73 0.70 0.62 0.48 0.53 0.69 0.71 0.92 0.95 1.07 0.99 0.95 0.88 0.94 0.95 0.99 0.92 0.74 0.78 0.80 0.90 1.04 1.13 1.29 1.29 1.25 1.19 1.27 1.37 1.50 1.72 1.70 1.41 1.39 1.69 1.37 1.58 1.60 1.56 1.97 1.44 1.29
0.97 0.96 0.95 0.99 0.83 0.68 0.85 0.65 0.62 0.45 0.57 0.64 0.61 0.66 0.73 0.67 1.20 1.18 0.92 0.96 1.16 1.45 1.84 1.90 2.00 2.06 1.92 1.61 1.39 1.45 1.74 2.09 2.14 1.80 1.59 1.52 1.33 1.29 1.25 1.16 1.18 1.36 0.96
1.35 1.29 1.26 1.19 1.32 0.97 1.35 1.18 1.08 0.91 0.96 0.91 0.77 0.75 1.24 0.94 1.27 0.98 0.85 0.80 1.01 1.08 1.16 1.26 1.36 1.41 1.34 1.33 1.55 1.41 1.50 1.79 1.87 1.83 1.42 1.43 1.19 1.30 1.48 1.17 0.96 0.87 0.77

GFSMA_prec_precacc_177.txt.gz
Total_Precipitation_Accumulation
0.70 1.08 0.84 0.83 0.62 1.22 0.79 0.54 0.57 0.53 0.61 0.68 0.60 0.50 0.28 0.37 0.22 0.27 0.37 0.55 0.60 0.71 1.05 1.01 0.95 0.94 0.67 0.46 0.43 0.40 0.43 0.49 0.52 0.57 0.70 0.67 0.47 0.43 0.34 0.35 0.26 0.23 0.31
0.72 1.15 1.02 0.87 0.61 0.87 0.79 0.68 0.45 0.52 0.50 0.70 0.56 0.49 0.36 0.37 0.18 0.18 0.29 0.45 0.51 0.56 0.85 1.23 1.37 1.18 0.65 0.33 0.18 0.20 0.26 0.29 0.39 0.52 0.55 0.55 0.48 0.34 0.30 0.26 0.25 0.24 0.25
0.48 0.74 0.94 0.73 0.64 0.72 0.67 0.83 0.77 0.60 0.59 0.86 0.60 0.51 0.40 0.45 0.25 0.12 0.20 0.29 0.31 0.40 0.55 0.79 1.04 1.04 0.76 0.36 0.17 0.07 0.10 0.10 0.15 0.29 0.35 0.38 0.49 0.40 0.36 0.32 0.31 0.35 0.33
0.38 0.47 0.71 0.92 0.80 0.82 0.59 0.56 0.77 0.61 0.56 0.77 0.78 0.54 0.52 0.45 0.42 0.13 0.13 0.30 0.32 0.32 0.45 0.52 0.73 0.85 0.85 0.59 0.32 0.14 0.08 0.12 0.11 0.18 0.25 0.36 0.55 0.48 0.49 0.38 0.38 0.45 0.45
0.61 0.52 0.53 0.68 1.04 0.77 0.60 0.64 0.65 0.67 0.48 0.61 0.80 0.69 0.60 0.47 0.54 0.46 0.20 0.21 0.35 0.34 0.32 0.39 0.44 0.48 0.58 0.66 0.57 0.37 0.23 0.19 0.15 0.16 0.22 0.25 0.36 0.74 0.92 0.78 0.52 0.50 0.55
0.97 0.93 0.82 0.61 0.70 0.83 0.69 0.83 0.89 0.81 0.67 0.53 0.69 0.78 0.57 0.66 0.59 0.63 0.40 0.26 0.32 0.38 0.35 0.41 0.39 0.38 0.45 0.62 0.68 0.57 0.37 0.27 0.25 0.21 0.23 0.20 0.25 0.37 0.49 0.74 0.98 0.99 0.81
1.19 1.54 1.49 1.32 0.85 0.53 0.65 0.75 1.13 1.16 1.08 0.93 1.25 1.23 0.90 0.62 0.66 0.60 0.52 0.44 0.51 0.44 0.56 0.49 0.59 0.51 0.56 0.61 0.61 0.51 0.42 0.32 0.27 0.31 0.28 0.21 0.24 0.27 0.41 0.62 0.91 1.18 1.38
1.26 1.36 1.48 1.72 1.87 1.23 0.76 0.73 1.08 1.52 1.63 1.55 1.64 1.42 1.09 0.86 0.61 0.66 0.54 0.42 0.38 0.41 0.56 0.72 0.55 0.57 0.70 0.73 0.56 0.54 0.57 0.58 0.43 0.41 0.59 0.51 0.34 0.24 0.25 0.39 0.53 0.90 1.15
0.84 1.22 1.44 1.38 1.39 1.29 1.16 1.12 1.32 1.76 1.65 1.61 1.42 1.73 1.47 1.10 0.81 0.67 0.58 0.44 0.57 0.70 0.66 0.77 0.90 0.70 0.61 0.61 0.58 0.53 0.47 0.58 0.78 0.78 0.83 0.68 0.55 0.40 0.41 0.46 0.49 0.58 0.76
0.58 0.88 1.20 1.09 1.33 1.57 1.09 0.90 0.69 1.09 1.60 1.75 2.01 1.57 0.94 0.81 0.77 0.77 0.66 0.57 0.50 0.65 0.97 1.53 1.73 1.93 1.92 1.87 1.69 1.41 1.33 1.31 1.29 1.52 1.67 1.58 1.39 1.42 1.52 1.41 0.99 0.66 0.62
0.62 0.69 0.94 1.07 1.11 1.11 1.13 1.00 0.66 0.58 0.86 1.12 1.14 1.33 1.63 1.35 0.99 0.71 0.62 0.50 0.42 0.33 0.43 0.48 0.89 1.34 1.37 1.24 1.25 1.31 1.20 1.48 1.43 1.42 1.53 1.42 1.26 1.26 1.40 1.85 1.91 1.43 1.05
0.84 0.88 0.94 1.05 1.57 1.77 1.56 1.34 1.55 1.33 1.02 1.07 1.28 1.27 0.98 0.91 0.99 1.10 0.90 0.62 0.58 0.41 0.41 0.48 0.54 0.65 0.74 0.70 0.76 0.93 0.74 0.63 0.81 0.85 0.83 0.83 0.73 0.70 0.76 0.76 1.02 1.26 1.11
1.95 2.04 2.01 1.72 1.62 1.87 2.55 2.03 1.97 1.99 2.05 1.67 1.51 1.31 1.27 1.03 0.86 0.88 0.95 0.91 0.96 0.78 0.77 0.68 0.58 0.55 0.65 0.94 0.90 0.86 0.80 0.83 0.73 0.77 0.67 0.56 0.50 0.47 0.44 0.52 0.54 0.57 0.56
2.66 3.02 3.48 3.70 2.99 2.39 2.63 2.75 2.31 2.25 2.72 2.73 2.27 1.86 1.49 1.51 1.55 1.45 1.37 1.63 1.45 1.07 0.90 0.71 0.58 0.65 0.73 0.82 0.94 1.27 1.16 1.06 1.02 0.94 0.82 0.72 0.70 0.65 0.60 0.56 0.59 0.63 0.62
1.65 2.10 2.32 2.52 3.15 3.23 2.80 2.76 2.59 2.18 2.25 2.56 2.56 2.59 2.49 1.78 1.54 1.61 1.72 1.81 2.06 1.50 0.75 0.52 0.82 0.85 0.93 0.94 1.01 1.00 0.93 1.05 1.12 1.10 0.99 0.84 0.75 0.80 0.92 0.90 0.82 0.78 0.75
2.05 1.60 1.76 1.83 1.66 1.61 1.77 2.16 2.37 2.19 2.15 2.17 2.19 2.29 2.47 2.55 2.25 2.09 2.08 2.03 2.02 1.69 1.34 0.88 0.95 0.77 0.90 0.80 0.99 0.95 0.78 0.87 1.03 1.20 1.22 1.33 1.34 1.12 0.97 1.10 1.25 1.12 0.92
2.02 1.90 1.60 1.60 1.61 1.42 1.49 1.59 1.58 1.68 1.95 2.08 1.95 2.08 2.39 2.79 2.69 2.67 2.58 2.40 2.09 2.12 2.57 1.98 1.32 1.20 1.07 0.87 0.82 0.79 0.76 0.63 0.57 0.77 1.01 1.23 1.49 2.00 1.85 1.48 1.43 1.66 1.56
1.67 1.32 1.18 1.12 1.19 1.31 1.46 1.47 1.46 1.52 1.41 1.41 1.60 1.57 1.68 1.86 2.06 2.21 2.44 2.73 2.75 2.73 2.81 2.71 2.64 2.39 1.97 1.55 1.30 1.06 0.77 0.67 0.57 0.69 0.75 0.83 1.00 1.30 1.71 1.89 1.70 1.66 1.80
1.44 1.41 1.16 1.07 1.06 1.19 1.31 1.64 1.52 1.34 1.44 1.70 1.75 1.79 1.75 1.70 1.73 1.86 1.95 1.93 1.83 1.92 2.32 2.62 2.64 2.50 2.26 1.86 1.55 1.29 1.22 1.00 0.71 0.71 0.68 0.78 0.88 0.88 1.03 1.38 1.76 1.81 1.72
1.45 1.78 1.89 1.94 1.72 1.39 1.40 1.36 1.31 1.33 1.23 1.56 1.68 1.41 1.61 1.69 1.51 1.41 1.58 1.69 1.63 1.79 2.00 2.30 2.47 2.32 2.18 2.08 2.09 1.95 1.73 1.43 1.42 1.21 1.03 0.84 0.83 0.93 0.96 1.00 1.07 1.31 1.62
0.77 1.33 1.40 1.56 1.43 1.17 1.16 0.84 0.64 1.01 1.13 1.05 1.32 1.14 1.01 1.12 1.18 0.88 0.82 1.00 1.30 1.60 1.87 2.02 2.26 2.27 2.12 2.03 2.17 2.18 2.15 2.03 2.07 1.67 1.42 1.36 1.29 1.15 1.16 1.21 1.23 1.25 1.27
0.41 0.61 0.73 0.86 1.01 0.80 0.87 0.52 0.45 0.55 0.62 0.56 0.58 0.55 0.60 0.76 0.63 0.77 0.83 0.81 0.79 0.93 1.13 1.34 1.48 1.59 1.54 1.61 1.77 2.02 2.09 2.39 2.32 1.62 1.84 1.85 1.63 1.66 1.71 1.76 2.05 1.72 1.39
0.66 0.57 0.60 0.63 0.82 0.97 1.09 0.95 0.79 0.59 0.63 0.73 0.75 0.71 0.60 0.59 0.66 0.41 0.61 0.75 0.85 1.03 1.07 1.03 1.17 1.18 1.19 1.16 1.33 1.57 1.69 1.77 1.75 1.48 1.79 2.03 1.82 1.85 1.78 1.95 2.41 2.14 2.02
0.81 0.73 0.70 0.62 0.48 0.53 0.69 0.71 0.92 0.95 1.07 0.99 0.95 0.88 0.94 0.95 0.99 0.92 0.74 0.78 0.80 0.90 1.04 1.13 1.29 1.29 1.25 1.19 1.27 1.37 1.50 1.72 1.70 1.41 1.39 1.69 1.37 1.58 1.60 1.56 1.97 1.44 1.29
0.97 0.96 0.95 0.99 0.83 0.68 0.85 0.65 0.62 0.45 0.57 0.64 0.61 0.66 0.73 0.67 1.20 1.18 0.92 0.96 1.16 1.45 1.84 1.90 2.00 2.06 1.92 1.61 1.39 1.45 1.74 2.09 2.14 1.80 1.59 1.52 1.33 1.29 1.25 1.16 1.18 1.36 0.96
1.35 1.29 1.26 1.19 1.32 0.97 1.35 1.18 1.08 0.91 0.96 0.91 0.77 0.75 1.24 0.94 1.27 0.98 0.85 0.80 1.01 1.08 1.16 1.26 1.36 1.41 1.34 1.33 1.55 1.41 1.50 1.79 1.87 1.83 1.42 1.43 1.19 1.30 1.48 1.18 0.96 0.87 0.77